Regional Weather Roundup
Issued by NWS

Home | Current Version | Previous Version | Text Only | Print | Product List | Glossary Off
Versions: 1 2 3 4 5 6 7 8 9 10 11 12 13 14 15 16 17 18 19 20 21 22 23 24 25 26 27 28 29 30 31 32 33 34 35 36 37 38 39 40 41 42 43 44 45 46 47 48 49 50

037
ASUS43 KLSX 171257
RWRMO

WEATHER SUMMARY FOR MISSOURI
NATIONAL WEATHER SERVICE SPRINGFIELD MO
700 AM CST SUN DEC 17 2017

NOTE: "FAIR" INDICATES FEW OR NO CLOUDS BELOW 12,000 FEET WITH NO
       SIGNIFICANT WEATHER AND/OR OBSTRUCTIONS TO VISIBILITY.
       CURRENT SKY AND/OR WEATHER CONDITIONS ARE NOT AVAILABLE FOR
       CHILLICOTHE AND FARMINGTON.

MOZ001>031-035>038-043-044-053-054-171400-
...NORTHERN AND WESTERN MISSOURI...

CITY           SKY/WX    TMP DP  RH WIND       PRES   REMARKS
KANSAS CTY INT LGT RAIN  42  41  96 SW5       30.00S
KANSAS C DTWN  LGT RAIN  45  41  87 CALM      30.00S
LEE`S SUMMIT   LGT RAIN  43  43 100 S6        30.01R
ST JOSEPH      RAIN      41  41 100 CALM      30.00S FOG
CHILLICOTHE      N/A     44  33  65 S7        30.02R

$$
MOZ066>068-077>081-088>096-101>105-171400-
...SOUTHWEST MISSOURI...

CITY           SKY/WX    TMP DP  RH WIND       PRES   REMARKS
SPRINGFIELD    LGT RAIN  42  40  92 S7        30.03R FOG
JOPLIN         CLOUDY    42  42 100 S7        30.05R FOG
BRANSON        LGT RAIN  41  41 100 SE6       30.05R FOG

$$
MOZ032>034-039>042-045>050-055>058-069>072-171400-
...CENTRAL MISSOURI...

CITY           SKY/WX    TMP DP  RH WIND       PRES   REMARKS
COLUMBIA       NOT AVBL
JEFFERSON CITY MOCLDY    42  36  79 CALM      30.03S
ROLLA          CLOUDY    44  32  62 SE9       30.01F
SEDALIA        LGT RAIN  44  43  96 SW8       30.05R
WARRENSBURG    RAIN      41  39  93 CALM      30.02S

$$
MOZ051-052-059>065-171400-
...EAST CENTRAL MISSOURI...

CITY           SKY/WX    TMP DP  RH WIND       PRES   REMARKS
ST LOUIS INTL  CLOUDY    45  30  55 S3        30.05F

$$
MOZ072>076-082>087-097>100-106>115-171400-
...SOUTH CENTRAL AND SOUTHEAST MISSOURI...

CITY           SKY/WX    TMP DP  RH WIND       PRES   REMARKS
CAPE GIRARDEAU LGT RAIN  41  38  89 S7        30.13R
POPLAR BLUFF   CLOUDY    41  41 100 SE5       30.10F FOG
WEST PLAINS    LGT RAIN  40  40 100 E8        30.02F

$$



USA.gov is the U.S. government's official web portal to all federal, state and local government web resources and services.